Location: Newark
(39.6867°N, 100.6772°W)
Time: 18:44:54
(UTC+00:00)

Explorer 11/Cluster Stage 4 - Pass Details

Date: 30 October 2019
Orbit: 467 x 1259 km, 28.8° (Epoch: 12 November)

Event Time Altitude Azimuth Distance (km) Brightness Sun altitude
Rises 13:39:26 0° 251° (WSW) 3,166 9.2 4.7°
Reaches altitude 10° 13:42:39 10° 235° (SW) 2,084 8.5 5.3°
Maximum altitude 13:46:03 19° 189° (S) 1,416 8.2 5.9°
Drops below altitude 10° 13:49:03 10° 142° (SE) 1,805 9.7 6.4°
Sets 13:51:36 0° 124° (SE) 2,606 11.5 6.8°
